TimeEDT,TemperatureF,Dew PointF,Humidity,Sea Level PressureIn,VisibilityMPH,Wind Direction,Wind SpeedMPH,Gust SpeedMPH,PrecipitationIn,Events,Conditions,WindDirDegrees,DateUTC
12:56 AM,27.1,17.1,66,30.29,10.0,Calm,Calm,-,N/A,,Clear,0,2013-04-06 04:56:00
1:56 AM,25.2,16.2,69,30.30,10.0,NW,3.5,-,N/A,,Clear,320,2013-04-06 05:56:00
2:56 AM,24.1,16.2,72,30.29,10.0,Calm,Calm,-,N/A,,Clear,0,2013-04-06 06:56:00
3:56 AM,21.0,16.2,81,30.29,10.0,Calm,Calm,-,N/A,,Clear,0,2013-04-06 07:56:00
4:56 AM,21.0,17.1,85,30.31,10.0,Calm,Calm,-,N/A,,Clear,0,2013-04-06 08:56:00
5:56 AM,20.1,16.2,85,30.32,10.0,Calm,Calm,-,N/A,,Clear,0,2013-04-06 09:56:00
6:56 AM,20.1,16.2,85,30.34,10.0,Calm,Calm,-,N/A,,Mostly Cloudy,0,2013-04-06 10:56:00
7:56 AM,25.2,20.1,81,30.38,10.0,Calm,Calm,-,N/A,,Overcast,0,2013-04-06 11:56:00
8:56 AM,29.1,22.1,75,30.37,10.0,Calm,Calm,-,N/A,,Mostly Cloudy,0,2013-04-06 12:56:00
9:56 AM,32.9,20.1,59,30.36,10.0,ESE,8.1,-,N/A,,Scattered Clouds,120,2013-04-06 13:56:00
10:56 AM,37.4,17.6,45,30.29,10.0,Variable,3.5,-,N/A,,Mostly Cloudy,0,2013-04-06 14:56:00
11:56 AM,41.9,16.2,35,30.35,10.0,Variable,5.8,-,N/A,,Partly Cloudy,0,2013-04-06 15:56:00
12:56 PM,45.0,13.1,28,30.32,10.0,Variable,4.6,-,N/A,,Clear,0,2013-04-06 16:56:00
1:56 PM,48.9,10.0,21,30.28,10.0,Variable,6.9,-,N/A,,Partly Cloudy,0,2013-04-06 17:56:00
2:56 PM,52.0,11.1,20,30.25,10.0,Variable,5.8,-,N/A,,Clear,0,2013-04-06 18:56:00
3:56 PM,52.9,11.1,19,30.21,10.0,SSW,9.2,-,N/A,,Clear,200,2013-04-06 19:56:00
4:56 PM,55.4,6.8,14,30.12,10.0,South,9.2,-,N/A,,Clear,190,2013-04-06 20:56:00
5:56 PM,54.9,9.1,16,30.19,10.0,SE,5.8,-,N/A,,Clear,140,2013-04-06 21:56:00
6:56 PM,54.0,9.1,17,30.17,10.0,Variable,5.8,-,N/A,,Clear,0,2013-04-06 22:56:00
7:56 PM,52.9,10.0,18,30.14,10.0,Variable,4.6,-,N/A,,Mostly Cloudy,0,2013-04-06 23:56:00
8:56 PM,50.9,10.0,19,30.13,10.0,ESE,4.6,-,N/A,,Partly Cloudy,120,2013-04-07 00:56:00
9:56 PM,50.9,11.1,20,30.11,10.0,SE,4.6,-,N/A,,Partly Cloudy,130,2013-04-07 01:56:00
10:56 PM,51.8,10.4,19,30.02,10.0,SE,4.6,-,N/A,,Clear,140,2013-04-07 02:56:00
11:56 PM,52.0,15.1,23,30.04,10.0,SE,9.2,-,N/A,,Clear,140,2013-04-07 03:56:00